Location: Mahannah Oil Field
(37.4664°N, 96.6003°W)
Time: 14:29:51
(UTC+00:00)

Vanguard 2 Rocket - Pass Details

Date: 21 January 2021
Orbit: 554 x 3325 km, 32.9° (Epoch: 06 March)

Event Time Altitude Azimuth Distance (km) Brightness Sun altitude
Rises 20:21:44 0° 219° (SW) 6,939 12.6 27.8°
Reaches altitude 10° 20:27:32 10° 211° (SSW) 5,581 12.7 27.3°
Maximum altitude 20:40:22 32° 157° (SSE) 3,056 10.3 26.0°
Drops below altitude 10° 20:48:39 10° 98° (E) 3,579 9.8 25.1°
Sets 20:51:26 0° 88° (E) 4,228 10.0 24.8°
